Regional Weather Roundup
Issued by NWS Spokane, WA

Home | Current Version | Previous Version | Text Only | Print | Product List | Glossary On
Versions: 1 2 3 4 5 6 7 8 9 10 11 12 13 14 15 16 17 18 19 20 21 22 23 24 25 26 27 28 29 30 31 32 33 34 35 36 37 38 39 40 41 42 43 44 45 46 47 48 49 50
226
NZUS01 KOTX 270625
RWROTX

Eastern Washington/Northern Idaho Roundup
National Weather Service, Spokane WA
1100 PM PDT FRI AUG 26 2016

Note: "fair" indicated few or no clouds below 12,000 feet with no
significant weather and/or obstructions to visibility.

...Northeast Washington and Northern Idaho Panhandle...

CITY           SKY/WX    TMP DP  RH WIND       PRES   REMARKS
Spokane Intl   CLOUDY    73  38  27 SW10      29.83F
Spokane Downto CLOUDY    69  43  38 N3        29.83S
Coeur d Alene  CLOUDY    68  46  45 E8        29.81F
Deer Park      CLOUDY    65  37  35 CALM      29.83S
Sandpoint      CLOUDY    63  46  55 CALM      29.82F
Bonners Ferry    N/A     72  41  33 SE3       29.81F

...Southeast Washington and southern Idaho Panhandle...

CITY           SKY/WX    TMP DP  RH WIND       PRES   REMARKS
Walla Walla    PTCLDY    73  36  25 SE8       29.81F
Pullman/Moscow MOCLDY    61  35  37 CALM      29.90S
Lewiston       PTCLDY    73  36  25 S7        29.83S
Lowell           N/A     59  47  64 NW5       29.91R
Grangeville    FAIR      57  36  44 CALM      29.93S

...Columbia Basin...

CITY           SKY/WX    TMP DP  RH WIND       PRES   REMARKS
Ephrata        MOCLDY    69  47  45 SW5       29.77S
Moses Lake     MOCLDY    76  48  37 SW10      29.77F
Pasco          PTCLDY    68  53  58 CALM      29.76F
Richland       PTCLDY    69  51  51 N7        29.76S
Hermiston      CLEAR     69  40  34 S9        29.77F
Pendleton      PTCLDY    69  36  29 SE12      29.84S

...East Slopes Cascades...

CITY           SKY/WX    TMP DP  RH WIND       PRES   REMARKS
The Dalles     CLEAR     76  43  30 CALM      29.77S
Yakima         MOCLDY    73  47  39 SW8       29.80F
Ellensburg     MOCLDY    73  45  36 NW10      29.84S
Stampede Pass  PTCLDY    62  41  46 VRB3      29.99F
Wenatchee      PTCLDY    78  42  27 NW12      29.77F
Omak           MOCLDY    76  43  30 CALM      29.74F
Chelan           N/A     79  43  27 S12         N/A
Sunnyside        N/A     65  49  57 W5        29.78S

...Southern British Columbia...

CITY           SKY/WX    TMP DP  RH WIND       PRES   REMARKS
Penticton      MOCLDY    72  54  53 VRB2      29.72F
Cranbrook      MOCLDY    68  45  42 SW3       29.82F
Osoyoos          N/A     70  54  56 E1          N/A
Creston          N/A     72  45  37 E7          N/A

...Western Montana...

CITY           SKY/WX    TMP DP  RH WIND       PRES   REMARKS
Kalispell      MOCLDY    54  45  71 N8        29.87F
Libby            N/A     63  39  42 E5        29.85F
Missoula       CLOUDY    61  40  45 CALM      29.94S

...Neighboring Cities...

CITY           SKY/WX    TMP DP  RH WIND       PRES   REMARKS
Seattle        PTCLDY    77  48  35 SE6       29.81F
Portland       CLEAR     80  49  33 N3        29.82R
Boise          PTCLDY    67  31  26 SE12      29.91S
Great Falls    PTCLDY    54  38  54 S7        29.92F
Calgary        CLOUDY    59  46  63 S7        29.77F



USA.gov is the U.S. government's official web portal to all federal, state and local government web resources and services.